Regional Weather Roundup
Issued by NWS

Home | Current Version | Previous Version | Graphics & Text | Print | Product List | Glossary On
Versions: 1 2 3 4 5 6 7 8 9 10 11 12 13 14 15 16 17 18 19 20 21 22 23 24 25 26 27 28 29 30 31 32 33 34 35 36 37 38 39 40 41 42 43 44 45 46 47 48 49 50
000
ASUS43 KTOP 060459
RWRKS

WEATHER ROUNDUP FOR KANSAS
NATIONAL WEATHER SERVICE GOODLAND KS
1200 AM CDT MON JUL 06 2015

NOTE:  "FAIR" INDICATES FEW OR NO CLOUDS BELOW 12,000 FEET WITH NO
SIGNIFICANT WEATHER AND/OR OBSTRUCTIONS TO VISIBILITY.

KSZ001>006-013>018-027>032-041>047-060600-
NORTHWEST KANSAS

CITY           SKY/WX    TMP DP  RH WIND       PRES   REMARKS
GOODLAND       CLOUDY    68  63  84 NE8       29.89F
HAYS           MOCLDY    82  63  51 S17G25    29.82F
HILL CITY      CLOUDY    86  62  44 S18G28    29.80S
RUSSELL        MOCLDY    82  64  54 S16       29.82R
$$

KSZ061>065-074>080-084>089-060600-
SOUTHWEST KANSAS

CITY           SKY/WX    TMP DP  RH WIND       PRES   REMARKS
DODGE CITY     MOCLDY    80  63  55 S18G24    29.88S
ELKHART          N/A     73  57  57 S9          N/A
GARDEN CITY    CLOUDY    78  64  61 S15       29.86S
GREAT BEND     MOCLDY    81  64  57 S15       29.86S
LIBERAL        PTCLDY    79  63  57 S14       29.91S
$$

KSZ066>073-081>083-090>101-060600-
SOUTHEAST KANSAS

CITY           SKY/WX    TMP DP  RH WIND       PRES   REMARKS
CHANUTE        CLEAR     80  73  79 S10       29.92F
COFFEYVILLE    CLEAR     80  73  79 S10       29.92F
HUTCHINSON     CLOUDY    85  69  58 S21G28    29.88R
MEDICINE LODGE   N/A     83  68  60 S14G23    29.89R
NEWTON         MOCLDY    82  66  57 S17G23    29.92R
PARSONS        CLEAR     80  74  81 S7        29.93F
WICHITA INTL   MOCLDY    84  70  62 S17       29.90R
WICHITA JABRA  MOCLDY    82  70  66 S16G23    29.91R
WINFIELD       PTCLDY    82  71  69 S20G25    29.92F
$$

KSZ007>012-019>026-033>040-048>060-102>105-060600-
NORTHEAST KANSAS

CITY           SKY/WX    TMP DP  RH WIND       PRES   REMARKS
CONCORDIA      CLOUDY    84  64  50 S20       29.81S
EMPORIA        PTCLDY    81  73  76 S18G24    29.90R
LAWRENCE       PTCLDY    81  70  69 S12G20    29.89S
MANHATTAN      MOCLDY    85  71  63 S16       29.84R
OLATHE IND     CLEAR     77  68  73 S10       29.92R
OLATHE EXE     PTCLDY    76  67  73 S7        29.91R
SALINA         CLOUDY    87  68  52 S18G28    29.84R
TOPEKA BILLARD PTCLDY    83  74  74 S12       29.87R
TOPEKA FORBES  PTCLDY    83  74  74 S13       29.88R
$$


USA.gov is the U.S. government's official web portal to all federal, state and local government web resources and services.